Wind_Speed
18 18 19 20 20 20 21 21 22 21 21 22 23 23 26 30 28 5 4 2 3 5 3 4 4 2 0 4 2 4 4 2 4 4 3 5 2 4 2 9 0 3 7 14 28
18 19 20 20 22 22 23 22 22 21 21 22 22 23 25 29 17 4 2 3 3 2 6 6 3 2 3 4 2 4 3 7 5 2 4 3 2 7 4 5 4 7 16 29 28
20 21 22 22 23 23 24 22 22 22 21 21 21 21 23 19 3 3 0 2 3 5 7 5 3 2 3 3 2 3 4 2 6 7 6 4 4 5 10 5 6 19 20 20 26
21 22 22 22 23 25 25 24 24 21 21 20 19 19 20 6 4 1 1 1 2 7 8 4 3 3 3 2 4 4 2 4 7 5 4 5 5 6 4 4 10 20 23 18 18
22 23 23 23 24 24 25 25 23 22 19 17 16 15 7 5 6 2 3 2 3 8 5 4 3 2 1 3 1 3 3 5 10 11 4 6 7 8 3 7 11 17 19 19 18
23 24 24 24 24 25 27 25 22 21 15 13 11 9 3 2 3 2 5 4 2 3 3 3 3 2 2 2 3 3 6 7 7 9 1 6 2 5 2 11 13 16 16 18 19
27 26 26 26 26 27 26 24 19 16 14 8 5 4 1 10 5 3 3 3 3 2 1 2 1 2 2 4 2 2 6 9 4 4 5 9 2 5 8 15 15 15 15 15 14
27 28 27 27 28 26 25 24 20 13 7 2 2 1 7 2 6 10 10 8 10 13 10 10 7 2 3 2 7 4 5 4 4 6 3 4 8 5 11 17 16 16 14 15 12
27 28 27 26 25 24 25 11 11 8 5 4 3 2 8 9 7 6 15 7 4 8 8 9 0 2 5 4 6 7 3 3 10 3 1 3 3 5 11 14 15 16 16 15 14
28 27 26 24 21 22 22 8 9 8 8 4 1 2 5 4 10 5 13 15 5 3 5 5 5 3 3 4 5 5 3 4 6 3 5 3 7 6 17 16 17 15 15 15 14
29 26 23 22 17 18 22 2 7 3 2 3 1 4 4 16 2 1 6 9 3 5 2 4 2 8 6 3 2 0 2 6 7 7 6 7 7 9 17 14 11 13 14 14 15
30 27 24 19 12 13 20 7 4 9 8 5 8 7 16 5 4 4 7 5 4 4 3 4 7 4 4 2 3 3 4 7 9 5 3 8 12 8 17 22 22 19 16 17 12
29 27 24 18 7 11 9 11 24 15 1 7 3 3 4 7 3 5 3 3 3 4 3 6 6 5 4 4 4 4 6 3 9 8 6 5 8 3 7 7 13 9 16 14 16
27 26 23 14 3 13 4 23 23 7 4 5 4 4 2 1 3 7 5 3 1 7 7 5 6 7 5 6 6 7 6 7 7 3 5 4 8 5 8 19 15 15 12 10 6
25 24 20 13 6 4 14 26 14 3 5 5 3 2 1 2 6 3 4 4 4 4 6 7 3 3 5 10 6 10 8 7 8 5 2 4 2 9 3 8 14 6 6 6 7
24 20 17 12 9 13 23 18 4 4 3 6 4 7 5 1 4 8 3 4 3 2 1 8 3 4 6 5 5 7 5 6 2 4 4 6 6 6 5 7 5 6 8 11 10
22 13 12 14 9 22 24 2 4 6 6 7 5 6 2 6 7 8 6 3 3 1 5 5 8 4 5 6 3 4 5 3 4 2 6 3 3 8 9 3 10 12 13 14 14
21 6 9 13 18 21 10 5 8 2 4 4 5 7 6 10 7 9 6 6 7 3 1 3 8 6 2 8 9 8 9 6 5 3 5 5 6 4 8 14 19 14 17 16 15
18 7 6 14 20 19 5 6 2 3 6 5 4 5 6 6 5 7 7 3 5 11 5 5 5 9 9 5 7 4 3 8 7 1 1 3 4 7 9 14 15 16 16 14 14
12 9 6 16 21 8 5 4 4 5 6 4 3 3 5 6 6 7 4 2 2 12 10 4 7 6 6 5 3 6 6 2 2 4 6 6 4 7 12 12 13 15 17 16 15
6 3 9 17 12 5 4 1 3 6 7 5 4 3 5 4 2 2 5 5 11 9 7 4 3 6 5 4 7 4 4 2 3 5 7 4 6 5 16 19 20 14 14 15 15
5 3 14 18 4 2 2 4 5 6 7 5 4 4 2 3 2 2 6 3 16 12 7 2 3 4 11 15 14 10 13 8 5 7 3 4 6 5 7 11 15 14 11 6 7
2 3 8 7 3 3 5 4 4 6 4 4 3 4 2 1 4 4 3 5 9 7 4 6 3 5 10 9 3 4 6 6 3 4 7 7 6 2 4 8 12 20 17 15 9
2 3 4 5 1 4 3 3 5 5 1 4 2 3 4 2 5 4 8 6 11 13 13 4 5 9 13 10 12 10 19 14 9 5 6 7 7 7 9 13 13 10 10 14 13
3 1 2 3 3 3 0 2 2 4 4 6 5 5 4 4 6 8 5 11 9 14 7 8 7 9 20 22 18 25 20 25 16 20 9 13 11 21 22 20 16 4 8 14 14
2 2 4 1 3 3 2 1 3 3 2 4 3 6 5 5 9 17 13 4 9 6 4 2 8 13 17 21 18 23 23 27 22 20 9 6 7 13 14 9 12 12 13 13 14
4 2 3 3 2 2 0 3 4 7 4 2 5 11 13 16 12 10 12 16 17 16 15 7 9 4 18 21 12 17 25 26 24 8 10 10 8 18 15 19 18 17 18 19 19
Wind_Direction
342 339 338 339 339 336 336 334 332 323 322 322 323 330 335 332 330 329 236 158 147 147 175 158 125 157 246 314 52 118 56 312 253 189 223 285 111 97 63 143 231 175 142 151 158
344 341 340 341 339 338 338 335 335 329 323 320 322 330 335 329 328 287 238 218 233 199 162 154 104 111 31 305 358 88 121 222 214 304 187 228 86 158 126 196 34 84 104 131 144
346 344 342 343 342 341 339 335 333 332 328 324 322 328 333 330 316 261 166 192 210 171 141 124 119 91 78 342 312 162 205 234 282 241 183 280 249 172 134 234 198 153 144 147 154
344 341 339 340 340 338 338 336 330 331 330 327 325 329 334 338 145 8 184 176 178 164 144 113 55 76 99 161 297 334 286 275 294 288 115 222 171 147 187 246 153 154 151 153 167
344 340 339 337 338 336 334 331 327 326 330 330 329 337 354 6 255 290 189 206 152 145 139 125 91 107 142 178 259 248 301 305 279 288 221 193 215 157 204 120 142 154 158 164 175
347 343 339 336 335 336 333 329 325 324 329 329 332 342 11 300 301 288 208 215 204 166 126 123 152 202 237 244 158 238 274 281 289 291 154 155 167 104 167 136 154 169 180 177 181
347 344 340 336 335 334 334 330 325 313 315 313 343 359 15 233 102 115 182 160 253 269 164 219 11 74 163 301 230 269 330 334 307 318 357 98 37 241 159 152 166 186 190 192 190
348 345 342 338 337 338 336 333 314 292 285 275 74 93 249 263 271 250 241 257 277 272 257 281 292 230 156 330 7 16 51 356 266 327 195 91 241 237 173 161 183 190 197 200 209
350 345 342 342 342 339 342 357 48 65 98 114 110 121 271 315 293 273 222 241 304 281 268 281 345 67 21 75 5 358 226 221 311 202 297 116 251 254 178 186 187 194 198 205 215
353 350 344 347 347 344 353 58 70 76 92 84 72 333 307 336 318 297 205 219 243 6 6 43 48 59 37 88 219 249 246 264 253 310 14 341 229 234 190 193 196 200 204 206 214
356 352 349 347 350 359 15 48 13 341 35 247 220 272 266 335 17 218 189 152 139 74 130 350 81 226 232 199 172 231 253 272 277 283 325 276 268 210 199 201 204 208 208 212 216
358 356 353 356 9 19 38 72 51 281 305 250 252 253 265 272 303 311 163 130 149 173 132 12 249 238 226 218 236 249 287 287 285 274 169 299 278 226 193 205 203 198 204 214 214
357 357 356 360 28 28 6 28 351 359 280 306 221 240 230 154 217 282 129 107 140 168 159 169 234 62 188 272 269 255 231 237 246 324 246 251 293 244 199 224 218 215 213 208 204
356 358 359 13 63 355 354 335 342 9 46 329 4 334 41 251 280 225 190 126 55 200 160 224 263 232 238 250 170 271 214 243 273 10 267 91 293 274 224 204 208 209 203 209 196
354 353 359 11 333 342 320 330 336 105 70 333 47 146 154 148 323 13 216 88 206 176 107 244 293 269 229 236 163 245 261 230 250 230 280 235 129 272 82 231 207 160 161 127 101
353 349 354 356 336 341 332 332 107 44 69 356 10 351 4 309 307 322 10 73 154 161 133 236 245 205 215 263 164 276 312 286 81 139 237 246 174 280 200 202 162 101 81 91 83
353 346 350 346 323 332 334 44 41 70 326 356 324 344 35 339 19 359 346 19 196 150 257 282 251 230 197 293 342 194 76 306 311 183 224 144 132 231 318 154 120 103 88 85 77
352 349 347 2 344 340 340 62 68 351 359 356 326 346 57 23 2 356 10 12 4 2 42 244 311 181 192 179 212 193 164 171 213 228 267 129 229 307 337 103 104 91 100 89 81
351 345 338 354 347 338 55 53 127 9 313 337 350 37 1 7 27 10 359 349 45 30 23 338 281 332 316 242 146 282 175 196 227 300 288 226 87 50 81 90 103 112 107 104 101
347 335 335 345 339 359 67 121 100 18 329 19 65 55 11 348 29 22 322 336 32 42 357 327 303 263 292 282 223 196 193 274 357 198 235 280 215 175 153 139 131 129 127 129 128
9 35 354 341 338 42 91 58 44 20 20 38 18 14 43 21 333 247 272 324 26 347 343 343 199 295 319 240 225 292 235 206 173 161 208 228 259 179 168 165 153 151 157 154 144
6 38 344 350 48 27 55 336 340 359 8 16 106 71 81 5 288 262 234 330 8 358 333 269 258 254 256 285 277 257 244 190 176 261 238 181 253 331 168 165 151 152 154 155 169
32 278 355 359 77 16 326 340 34 19 344 4 25 62 98 311 318 256 307 342 333 4 348 339 284 319 308 308 50 230 219 179 160 113 217 172 244 113 123 179 192 161 172 154 177
44 20 335 36 49 94 25 321 347 326 63 21 304 57 20 290 235 280 290 298 310 279 246 167 225 221 252 262 303 293 294 294 215 177 220 227 161 195 192 203 194 185 154 144 157
23 11 183 330 2 353 321 306 320 356 22 22 355 65 20 287 293 255 276 307 284 272 266 185 224 230 259 262 264 271 272 278 268 246 188 235 196 186 191 194 187 211 179 167 158
70 44 355 310 319 25 357 355 2 6 357 299 206 346 321 248 251 282 285 283 268 279 222 204 262 265 256 264 250 256 255 265 262 261 239 189 216 199 175 146 200 195 198 175 158
5 13 110 287 352 63 192 353 327 332 280 172 350 317 289 271 269 269 266 271 256 252 254 229 248 266 270 260 274 264 238 246 244 209 196 200 206 152 169 185 202 193 192 171 161
Height
817 814 811 808 805 803 799 795 791 788 785 782 780 776 772 767 762 759 759 758 759 760 760 760 760 761 760 759 759 764 797 808 795 790 778 764 763 755 756 764 761 761 765 767 780
817 814 811 807 804 800 796 793 790 787 783 780 778 775 771 766 760 758 756 756 758 759 760 759 761 761 768 764 764 778 803 792 774 770 771 763 757 760 766 769 770 767 766 772 782
816 812 809 805 802 798 796 792 788 785 781 779 776 774 770 765 763 756 755 756 757 758 759 759 760 761 770 766 766 774 789 770 761 760 762 766 761 754 766 775 765 768 770 775 781
816 812 808 804 800 795 790 788 786 784 781 778 775 773 769 766 780 755 756 756 757 758 760 761 762 769 777 778 767 780 768 767 761 753 759 763 751 758 757 756 751 755 763 772 779
815 811 806 802 799 796 792 788 785 782 779 776 774 773 770 771 764 755 756 757 758 759 760 761 766 770 777 775 772 777 768 763 757 757 758 750 753 755 756 754 757 761 766 770 776
814 810 805 801 796 793 789 784 780 777 776 775 774 774 774 777 757 755 756 757 758 759 760 760 764 764 770 773 775 768 767 766 758 754 755 756 757 751 759 755 761 764 765 767 772
811 807 802 798 794 790 786 780 777 774 773 774 775 774 773 765 756 756 757 757 759 760 760 760 760 763 766 771 765 766 774 766 757 752 755 750 768 766 753 755 762 765 765 766 768
809 804 799 793 789 784 780 776 771 769 772 773 775 775 771 755 755 755 757 757 757 759 761 760 759 761 765 763 773 776 782 795 764 756 753 756 790 758 755 757 764 765 765 764 765
809 802 798 793 786 782 777 773 770 769 771 773 775 776 770 755 754 753 755 757 757 758 759 760 759 769 771 789 803 802 806 795 782 757 757 761 778 759 755 759 763 763 762 762 762
809 802 794 791 787 781 776 773 772 772 773 774 775 780 761 760 755 752 752 756 759 759 761 764 776 786 795 800 826 813 805 796 794 769 766 770 773 760 754 757 758 760 760 760 760
809 803 798 792 788 785 777 775 782 780 775 775 773 775 766 760 752 751 752 756 759 765 784 777 794 803 795 793 791 792 799 804 790 773 775 776 774 764 753 757 763 760 760 758 755
808 802 797 793 789 785 783 786 797 798 791 770 769 769 766 765 767 753 752 762 768 784 780 792 802 785 783 787 792 794 801 805 785 772 775 776 772 758 751 750 746 750 753 752 753
807 802 797 793 791 789 787 791 792 789 795 775 768 767 763 763 767 761 755 761 771 783 789 803 787 778 784 789 795 797 802 800 799 780 772 772 780 762 750 747 745 747 743 744 748
807 802 797 793 795 794 793 790 789 787 804 778 772 765 763 761 767 752 754 761 771 786 790 792 778 780 786 792 793 810 784 786 788 792 812 770 805 775 759 747 745 743 747 747 749
807 802 799 796 798 797 796 790 787 788 824 775 773 764 764 771 769 758 753 759 776 778 784 793 779 783 788 784 781 791 772 781 782 795 793 784 805 779 759 762 748 752 750 751 754
807 803 799 797 795 794 790 786 788 807 819 790 775 777 776 771 769 764 758 754 761 774 777 783 768 772 776 768 772 769 775 778 786 799 818 784 794 788 767 756 756 754 756 758 760
807 803 800 798 797 792 788 786 809 828 794 803 797 787 785 790 783 778 778 778 790 799 801 783 777 765 763 777 771 775 797 823 816 817 817 777 794 777 754 740 751 762 763 764 767
805 803 802 799 796 792 787 798 830 810 810 795 794 789 797 802 797 793 794 803 789 787 803 805 805 773 760 773 780 784 796 823 831 818 799 770 789 779 757 746 752 762 765 767 770
805 803 802 800 796 792 796 827 826 816 807 806 802 812 816 807 808 806 809 803 798 799 815 815 802 770 764 757 764 778 795 781 800 792 803 788 781 773 768 764 762 765 769 770 772
807 805 802 800 797 794 810 824 818 811 805 804 819 814 825 822 820 820 814 798 802 801 803 804 816 780 764 753 757 766 766 792 810 815 819 797 778 784 777 772 769 772 771 771 772
810 811 805 802 798 805 829 825 816 810 808 812 815 817 823 830 826 824 816 803 806 804 803 805 812 797 776 773 775 778 781 779 787 803 802 809 789 765 764 762 766 773 771 769 771
816 820 807 803 817 831 831 824 816 817 812 813 815 818 824 826 828 823 820 811 804 805 811 801 810 813 789 765 759 764 764 775 795 795 796 791 785 768 765 762 762 769 776 780 779
830 827 810 808 833 837 830 823 820 821 819 818 819 819 819 825 832 822 815 805 807 810 813 809 816 818 794 771 756 763 756 759 772 785 787 789 780 765 767 771 766 760 764 763 779
833 831 824 821 831 832 836 831 828 819 819 821 821 820 826 827 825 825 819 808 806 804 801 806 814 808 803 786 777 781 768 765 760 784 765 769 777 770 770 767 766 763 763 764 769
836 839 838 842 838 836 834 833 830 830 826 824 826 828 835 837 830 824 815 813 804 799 798 807 814 804 786 776 779 770 770 759 767 740 756 738 754 754 752 756 759 769 768 766 769
840 842 840 843 840 836 836 834 832 831 832 831 831 832 833 836 828 822 818 817 811 801 800 804 806 794 790 776 773 769 756 746 743 734 737 733 743 732 737 753 763 765 764 762 766
841 841 841 844 841 840 840 838 834 833 826 825 829 830 828 821 814 811 810 805 802 800 797 801 799 802 793 771 765 760 730 729 723 719 719 737 728 727 746 746 748 749 749 751 760